KA8OAD-10 Weather Reports


time (UTC)temp
F
wind
direction
speed
knots
gust
knots
rain 1hr
in
rain 24hr
in
rain mn
in
humidity
%
barometer
mb
20260508085229 46 233 1.7 3.5 0.00 0.00 0.01 80 1010.9
20260508084733 46 224 0.9 2.6 0.00 0.00 0.01 80 1010.9
20260508084233 46 223 0.9 2.6 0.00 0.00 0.01 80 1010.7
20260508083732 46 223 0.9 2.6 0.00 0.00 0.01 80 1010.7
20260508083231 46 222 1.7 3.5 0.00 0.00 0.01 80 1010.8
20260508082731 46 221 1.7 3.5 0.00 0.00 0.01 80 1010.8
20260508082230 46 220 0.9 3.5 0.00 0.00 0.01 80 1010.8
20260508081730 46 241 0.9 2.6 0.00 0.00 0.01 79 1010.9
20260508081229 47 247 1.7 4.3 0.00 0.00 0.01 79 1010.9
20260508080729 47 239 1.7 4.3 0.00 0.00 0.01 79 1010.8
20260508080232 47 231 0.9 4.3 0.00 0.00 0.01 79 1010.9
20260508075231 47 244 0.9 3.5 0.00 0.00 0.01 79 1010.9
20260508074230 48 248 1.7 3.5 0.00 0.00 0.01 79 1010.9
20260508073729 48 242 1.7 4.3 0.00 0.00 0.01 78 1011.0
20260508072732 48 239 2.6 6.1 0.00 0.00 0.01 77 1011.0
20260508072231 48 242 2.6 7.0 0.00 0.00 0.01 76 1011.0
20260508070730 48 232 4.3 11.3 0.00 0.00 0.00 72 1011.1
20260508070229 48 230 4.3 8.7 0.00 0.00 0.00 70 1011.2
20260508065733 48 228 2.6 7.8 0.00 0.00 0.00 70 1011.1
20260508065232 47 234 1.7 7.0 0.00 0.00 0.00 70 1011.0
20260508064732 47 232 1.7 7.0 0.00 0.00 0.00 70 1011.1
20260508064231 47 225 1.7 5.2 0.00 0.00 0.00 70 1011.1
20260508063230 47 238 1.7 3.5 0.00 0.00 0.00 70 1011.1
20260508062730 47 240 0.9 3.5 0.00 0.00 0.00 70 1011.2
20260508061733 47 0 0.0 0.0 0.00 0.00 0.00 70 1011.1
20260508061232 47 239 0.0 1.7 0.00 0.00 0.00 70 1011.1
20260508060732 47 239 0.0 1.7 0.00 0.00 0.00 70 1011.1
20260508060231 47 238 0.0 0.9 0.00 0.00 0.00 69 1011.2
20260508055731 47 0 0.0 0.0 0.00 0.00 0.00 69 1011.2
20260508055230 47 0 0.0 0.0 0.00 0.00 0.00 69 1011.2
20260508054229 48 0 0.0 0.0 0.00 0.00 0.00 69 1011.4
20260508053733 48 0 0.0 0.0 0.00 0.00 0.00 68 1011.5
20260508053232 48 0 0.0 0.0 0.00 0.00 0.00 68 1011.5
20260508052732 48 0 0.0 0.0 0.00 0.00 0.00 68 1011.6
20260508052231 48 0 0.0 0.0 0.00 0.00 0.00 68 1011.6
20260508051230 48 0 0.0 0.0 0.00 0.00 0.00 68 1011.6
20260508050730 48 0 0.0 0.0 0.00 0.00 0.00 67 1011.7
20260508050230 48 0 0.0 0.0 0.00 0.00 0.00 67 1011.8
20260508045232 48 0 0.0 0.0 0.00 0.00 0.00 67 1011.7
20260508044732 48 0 0.0 0.0 0.00 0.00 0.00 67 1011.6
20260508044231 48 240 0.0 0.9 0.00 0.00 0.00 67 1011.6
20260508043230 48 239 1.7 2.6 0.00 0.00 0.00 67 1011.6
20260508042730 48 237 1.7 3.5 0.00 0.00 0.00 67 1011.7
20260508041733 47 230 1.7 3.5 0.00 0.00 0.00 67 1011.7
20260508041232 47 227 2.6 4.3 0.00 0.00 0.00 67 1011.8
20260508040732 47 230 1.7 4.3 0.00 0.00 0.00 67 1011.7
20260508040231 46 234 1.7 3.5 0.00 0.00 0.00 68 1011.8
20260508035732 46 230 1.7 4.3 0.00 0.00 0.00 68 1011.8
20260508034730 46 245 1.7 4.3 0.00 0.00 0.00 69 1011.8
20260508034229 45 254 1.7 5.2 0.00 0.00 0.00 69 1011.9
20260508033232 45 273 0.9 3.5 0.00 0.00 0.00 70 1011.8
20260508032732 45 295 0.9 3.5 0.00 0.00 0.00 69 1011.9
20260508032231 45 320 0.0 0.9 0.00 0.00 0.00 68 1011.9
20260508031230 46 0 0.0 0.0 0.00 0.00 0.00 68 1011.8
20260508030731 46 321 0.0 0.9 0.00 0.00 0.00 68 1011.8
20260508030229 46 321 0.0 0.9 0.00 0.00 0.00 68 1011.8
20260508025733 46 321 0.0 0.9 0.00 0.00 0.00 68 1011.8
20260508024732 46 0 0.0 0.0 0.00 0.00 0.00 68 1011.8
20260508024231 46 0 0.0 0.0 0.00 0.00 0.00 67 1011.8
20260508023731 46 0 0.0 0.0 0.00 0.00 0.00 68 1011.7
20260508023230 46 0 0.0 0.0 0.00 0.00 0.00 67 1011.6
20260508022730 47 0 0.0 0.0 0.00 0.00 0.00 67 1011.6
20260508022229 47 0 0.0 0.0 0.00 0.00 0.00 67 1011.6
20260508021232 47 0 0.0 0.0 0.00 0.00 0.00 66 1011.6
20260508020732 47 0 0.0 0.0 0.00 0.00 0.00 65 1011.6
20260508020231 47 0 0.0 0.0 0.00 0.00 0.00 65 1011.6
20260508015731 48 0 0.0 0.0 0.00 0.00 0.00 64 1011.6
20260508015230 48 0 0.0 0.0 0.00 0.00 0.00 63 1011.5
20260508014730 48 0 0.0 0.0 0.00 0.00 0.00 62 1011.5
20260508014229 48 0 0.0 0.0 0.00 0.00 0.00 62 1011.5
20260508013733 48 0 0.0 0.0 0.00 0.00 0.00 61 1011.4
20260508013232 49 0 0.0 0.0 0.00 0.00 0.00 61 1011.3
20260508012731 49 0 0.0 0.0 0.00 0.00 0.00 59 1011.3
20260508012230 49 0 0.0 0.0 0.00 0.00 0.00 57 1011.4
20260508011730 50 0 0.0 0.0 0.00 0.00 0.00 57 1011.3
20260508011230 50 0 0.0 0.0 0.00 0.00 0.00 56 1011.2
20260508010730 50 0 0.0 0.0 0.00 0.00 0.00 54 1011.2
20260508005732 51 0 0.0 0.0 0.00 0.00 0.00 52 1011.2
20260508005231 51 0 0.0 0.0 0.00 0.00 0.00 51 1011.2
20260508004731 52 0 0.0 0.0 0.00 0.00 0.00 51 1011.2
20260508004230 52 320 0.0 0.9 0.00 0.00 0.00 51 1011.2
20260508003730 52 321 0.0 3.5 0.00 0.00 0.00 50 1011.1
20260508003233 52 321 0.9 3.5 0.00 0.00 0.00 48 1011.0
20260508002733 52 314 1.7 6.1 0.00 0.00 0.00 48 1011.0
20260508002232 52 314 1.7 7.0 0.00 0.00 0.00 48 1011.0
20260508001732 53 324 1.7 7.0 0.00 0.00 0.00 47 1010.9
20260508001231 53 298 1.7 5.2 0.00 0.00 0.00 47 1010.9
20260508000731 53 278 1.7 5.2 0.00 0.00 0.00 48 1010.8
20260508000230 53 294 2.6 4.3 0.00 0.00 0.00 47 1010.8
20260507235730 53 304 2.6 7.8 0.00 0.00 0.00 47 1010.7
20260507234733 54 304 4.3 9.6 0.00 0.00 0.00 45 1010.7
20260507234232 54 306 4.3 9.6 0.00 0.00 0.00 46 1010.7
20260507233732 54 307 4.3 12.2 0.00 0.00 0.00 46 1010.6
20260507233231 54 313 3.5 12.2 0.00 0.00 0.00 46 1010.6
20260507232730 54 312 3.5 9.6 0.00 0.00 0.00 46 1010.6
20260507230732 54 298 2.6 11.3 0.00 0.00 0.00 46 1010.7
20260507225731 55 300 3.5 7.8 0.00 0.00 0.00 46 1010.7
20260507225230 55 310 4.3 10.4 0.00 0.00 0.00 47 1010.8
20260507224730 55 311 4.3 13.9 0.00 0.00 0.00 46 1010.8
20260507224233 55 309 3.5 13.9 0.00 0.00 0.00 47 1010.6
20260507223232 55 299 3.5 11.3 0.00 0.00 0.00 47 1010.7
20260507222732 55 307 3.5 11.3 0.00 0.00 0.00 46 1010.7
20260507221731 55 311 4.3 10.4 0.00 0.00 0.00 48 1010.7
20260507221230 55 325 3.5 8.7 0.00 0.00 0.00 48 1010.6
20260507215232 56 308 4.3 14.8 0.00 0.00 0.00 51 1010.6
20260507214731 56 308 5.2 15.6 0.00 0.00 0.00 50 1010.5
20260507214231 56 314 4.3 15.6 0.00 0.00 0.00 49 1010.5
20260507213730 56 315 3.5 12.2 0.00 0.00 0.00 50 1010.4
20260507213230 56 316 3.5 10.4 0.00 0.00 0.00 51 1010.2
20260507212729 56 311 3.5 10.4 0.00 0.00 0.00 49 1010.2
20260507204732 58 306 4.3 11.3 0.00 0.00 0.00 45 1010.0
20260507204231 58 297 3.5 11.3 0.00 0.00 0.00 46 1009.9
20260507203230 58 294 3.5 10.4 0.00 0.00 0.00 46 1009.8
20260507202730 58 305 3.5 10.4 0.00 0.00 0.00 45 1009.7
20260507201733 59 302 4.3 10.4 0.00 0.00 0.00 44 1009.8
20260507201231 59 310 4.3 12.2 0.00 0.00 0.00 44 1009.9
20260507200731 59 314 4.3 12.2 0.00 0.00 0.00 45 1009.7
20260507200230 59 315 3.5 7.8 0.00 0.00 0.00 44 1009.8
20260507195730 60 316 4.3 13.0 0.00 0.00 0.00 43 1009.7
20260507195233 60 308 5.2 13.9 0.00 0.00 0.00 42 1009.8
20260507194733 60 281 3.5 13.9 0.00 0.00 0.00 41 1009.9
20260507194232 61 259 3.5 10.4 0.00 0.00 0.00 43 1009.9
20260507193731 61 295 2.6 7.8 0.00 0.00 0.00 44 1010.0
20260507192730 61 281 3.5 8.7 0.00 0.00 0.00 42 1010.0
20260507192230 62 300 3.5 8.7 0.00 0.00 0.00 41 1010.1
20260507191730 62 311 4.3 10.4 0.00 0.00 0.00 44 1010.1
20260507191233 62 310 3.5 10.4 0.00 0.00 0.00 41 1010.0
20260507190733 62 311 2.6 9.6 0.00 0.00 0.00 43 1010.1
20260507190232 62 273 3.5 8.7 0.00 0.00 0.00 46 1010.1
20260507185732 61 235 4.3 7.0 0.00 0.00 0.00 44 1010.0
20260507185231 60 257 4.3 11.3 0.00 0.00 0.00 47 1010.1
20260507184730 60 279 4.3 12.2 0.00 0.00 0.00 47 1010.2
20260507184230 60 257 3.5 12.2 0.00 0.00 0.00 43 1010.2
20260507183730 60 241 3.5 10.4 0.00 0.00 0.00 42 1010.3
20260507182732 61 232 3.5 9.6 0.00 0.00 0.00 41 1010.1
20260507182232 61 236 3.5 8.7 0.00 0.00 0.00 42 1010.2
20260507181731 61 252 3.5 7.0 0.00 0.00 0.00 40 1010.2
20260507180730 62 264 2.6 7.0 0.00 0.00 0.00 41 1010.2
20260507180229 62 253 3.5 9.6 0.00 0.00 0.00 42 1010.3
20260507175729 62 265 3.5 9.6 0.00 0.00 0.00 39 1010.3
20260507175233 62 270 3.5 12.2 0.00 0.00 0.00 44 1010.3
20260507174732 62 276 3.5 12.2 0.00 0.00 0.00 43 1010.1
20260507173731 61 269 4.3 11.3 0.00 0.00 0.00 46 1010.4
20260507172730 60 246 3.5 7.8 0.00 0.00 0.00 47 1010.4
20260507172230 60 245 4.3 9.6 0.00 0.00 0.00 46 1010.4
20260507171729 59 254 2.6 9.6 0.00 0.00 0.00 44 1010.4
20260507171233 60 249 2.6 6.1 0.00 0.00 0.00 41 1010.5
20260507170731 60 263 2.6 8.7 0.00 0.00 0.00 45 1010.5
20260507170233 60 271 2.6 8.7 0.00 0.00 0.00 45 1010.5
20260507165232 61 307 2.6 8.7 0.00 0.00 0.00 43 1010.5
20260507164732 61 283 2.6 8.7 0.00 0.00 0.00 42 1010.5
20260507164231 61 280 2.6 7.8 0.00 0.00 0.00 46 1010.6
20260507162733 60 304 2.6 7.8 0.00 0.00 0.00 47 1010.6
20260507162232 60 305 2.6 7.0 0.00 0.00 0.00 43 1010.6
20260507161732 60 308 3.5 10.4 0.00 0.00 0.00 46 1010.6
20260507160230 60 282 2.6 8.7 0.00 0.00 0.00 45 1010.6
20260507155730 60 285 2.6 8.7 0.00 0.00 0.00 45 1010.6
20260507155233 60 289 2.6 7.0 0.00 0.00 0.00 46 1010.7
20260507154732 60 313 3.5 12.2 0.00 0.00 0.00 45 1010.7
20260507154232 60 306 3.5 12.2 0.00 0.00 0.00 46 1010.7
20260507153731 59 266 2.6 10.4 0.00 0.00 0.00 47 1010.7
20260507153230 59 238 1.7 7.0 0.00 0.00 0.00 45 1010.7
20260507152730 58 285 2.6 8.7 0.00 0.00 0.00 48 1010.7
20260507152230 58 281 2.6 8.7 0.00 0.00 0.00 49 1010.7
20260507151730 58 255 1.7 5.2 0.00 0.00 0.00 48 1010.8
20260507151232 58 281 1.7 5.2 0.00 0.00 0.00 50 1010.7
20260507150732 58 243 2.6 5.2 0.00 0.00 0.00 52 1010.7
20260507145731 57 294 2.6 7.0 0.00 0.00 0.00 53 1010.9
20260507145230 56 301 2.6 5.2 0.00 0.00 0.00 55 1010.8
20260507143729 54 260 1.7 3.5 0.00 0.00 0.00 62 1010.9
20260507143233 53 289 1.7 4.3 0.00 0.00 0.00 61 1010.9
20260507142732 52 317 2.6 5.2 0.00 0.00 0.00 62 1010.9
20260507142232 52 310 2.6 5.2 0.00 0.00 0.00 63 1011.0
20260507141731 52 286 1.7 5.2 0.00 0.00 0.00 66 1011.0
20260507141230 52 286 1.7 4.3 0.00 0.00 0.00 68 1011.1
20260507140730 51 310 2.6 4.3 0.00 0.00 0.00 68 1011.2
20260507135733 50 258 1.7 2.6 0.00 0.00 0.00 72 1011.2
20260507135232 50 284 0.9 2.6 0.00 0.00 0.00 74 1011.3
20260507133730 49 239 1.7 4.3 0.00 0.00 0.00 76 1011.4
20260507133229 49 253 1.7 5.2 0.00 0.00 0.00 76 1011.4
20260507132733 48 249 1.7 5.2 0.00 0.00 0.00 77 1011.5
20260507132232 48 275 2.6 7.8 0.00 0.00 0.00 78 1011.5
20260507131732 48 306 2.6 7.8 0.00 0.00 0.00 80 1011.5
20260507131231 47 302 0.9 4.3 0.00 0.00 0.00 82 1011.5
20260507130731 47 290 0.0 2.6 0.00 0.00 0.00 83 1011.5
20260507130230 46 240 0.9 2.6 0.00 0.00 0.00 84 1011.4
20260507125729 46 239 0.9 2.6 0.00 0.00 0.00 86 1011.4
20260507125233 46 238 0.9 3.5 0.00 0.00 0.00 87 1011.5
20260507124231 45 249 1.7 5.2 0.00 0.00 0.00 88 1011.4
20260507123731 44 250 0.9 5.2 0.00 0.00 0.00 90 1011.5
20260507123230 44 263 0.9 3.5 0.00 0.00 0.00 90 1011.5
20260507120732 42 267 0.0 2.6 0.00 0.00 0.00 91 1011.4
20260507120232 42 317 0.0 1.7 0.00 0.00 0.00 91 1011.4
20260507114730 40 330 0.0 2.6 0.00 0.00 0.00 90 1011.5
20260507114229 40 0 0.0 0.0 0.00 0.00 0.00 90 1011.5
20260507113729 40 0 0.0 0.0 0.00 0.00 0.00 90 1011.5
20260507112732 39 0 0.0 0.0 0.00 0.00 0.00 89 1011.3
20260507112232 39 0 0.0 0.0 0.00 0.00 0.00 89 1011.2
20260507111231 39 0 0.0 0.0 0.00 0.00 0.00 89 1011.3
20260507110730 39 0 0.0 0.0 0.00 0.00 0.00 89 1011.2
20260507105733 39 0 0.0 0.0 0.00 0.00 0.00 89 1011.1
20260507100732 39 0 0.0 0.0 0.00 0.00 0.00 89 1011.0
20260507100231 39 0 0.0 0.0 0.00 0.00 0.00 88 1011.0
20260507095230 39 0 0.0 0.0 0.00 0.00 0.00 88 1010.9
20260507094233 39 0 0.0 0.0 0.00 0.01 0.00 88 1011.0
20260507091730 39 0 0.0 0.0 0.00 0.03 0.00 88 1011.1
20260507090733 39 0 0.0 0.0 0.00 0.05 0.00 88 1011.1
20260507090232 39 0 0.0 0.0 0.00 0.05 0.00 88 1011.1
20260507085732 39 0 0.0 0.0 0.00 0.05 0.00 87 1011.1